Regional Weather Roundup
Issued by NWS

Home | Current Version | Previous Version | Text Only | Print | Product List | Glossary Off
Versions: 1 2 3 4 5 6 7 8 9 10 11 12 13 14 15 16 17 18 19 20 21 22 23 24 25 26 27 28 29 30 31 32 33 34 35 36 37 38 39 40 41 42 43 44 45 46 47 48 49 50

000
ASUS43 KOAX 170910
RWRNE

WEATHER ROUNDUP FOR NEBRASKA
NATIONAL WEATHER SERVICE OMAHA NE
300 AM CST TUE JAN 17 2017

NOTES: SATELLITE DATA IS BEING USED TO AUGMENT CLOUD COVER ABOVE
       12000 FEET.
       "FAIR" INDICATES FEW OR NO CLOUDS BELOW 12,000 FEET WITH NO
       SIGNIFICANT WEATHER AND/OR OBSTRUCTIONS TO VISIBILITY.

  * THESE STATIONS DO NOT REPORT WEATHER SUCH AS RAIN...SNOW OR FOG.

NEZ001>004-019>022-054>056-171000-
NEBRASKA PANHANDLE

CITY           SKY/WX    TMP DP  RH WIND       PRES   REMARKS
SCOTTSBLUFF    CLOUDY    19  13  77 NW12      30.07S WCI   7
ALLIANCE       CLOUDY    14  10  84 W6        30.05R WCI   5
CHADRON        CLOUDY    11   7  84 W8        30.07S WCI  -1
KIMBALL        CLOUDY    17  12  80 W7        30.06S WCI   8
SIDNEY         CLOUDY    17  11  77 W8        30.07S WCI   7
$$

NEZ057>060-069>072-079>082-171000-
SOUTHWEST NEBRASKA

CITY           SKY/WX    TMP DP  RH WIND       PRES   REMARKS
NORTH PLATTE   CLOUDY    19  16  88 CALM      30.07S
IMPERIAL       CLOUDY    25  20  81 NW3       30.09R
LEXINGTON      CLOUDY    26  21  83 NW12      30.06S WCI  15
MCCOOK         CLEAR     28  23  81 W8        30.10R WCI  20
OGALLALA       CLOUDY    23  19  86 CALM      30.08S
$$

NEZ005>010-023>029-035>040-094-171000-
NORTH CENTRAL NEBRASKA

CITY           SKY/WX    TMP DP  RH WIND       PRES   REMARKS
VALENTINE      CLOUDY    13   9  84 W7        30.05S WCI   3
AINSWORTH      CLOUDY    21  17  86 NW7       30.04R WCI  12
BROKEN BOW     CLOUDY    24  18  77 NW14      30.03S WCI  12
O`NEILL        CLOUDY    20  17  87 NW7       30.04R WCI  11
ORD            CLEAR     22  16  78 NW12      30.04S WCI  10
THEDFORD       CLOUDY    23  18  82 W3        30.05S
$$

NEZ041-046>049-061>064-073>077-083>087-171000-
SOUTH CENTRAL NEBRASKA

CITY           SKY/WX    TMP DP  RH WIND       PRES   REMARKS
GRAND ISLAND   CLEAR     24  21  88 NW9         N/A  WCI  14
AURORA         PTCLDY    26  23  87 NW3       30.05R
HASTINGS       CLEAR     27  22  81 N15       30.05S WCI  15
HEBRON         CLOUDY    31  28  86 NW3       30.05R
HOLDREGE       CLEAR     27  23  84 CALM      30.06S
KEARNEY *      CLEAR     27  19  74 CALM      30.06R
YORK           CLOUDY    27  25  93 CALM      30.04R
$$

NEZ011>018-030>034-042>045-171000-
NORTHEAST NEBRASKA

CITY           SKY/WX    TMP DP  RH WIND       PRES   REMARKS
NORFOLK        CLOUDY    20  14  77 NW7       30.02R WCI  11
ALBION         CLOUDY    20  16  84 NW6       30.03S FOG     WCI  12
BLAIR          CLOUDY    30  28  93 W5        29.99R FOG     WCI  25
FREMONT        CLOUDY    29  26  90 NW14      30.02R WCI  18
TEKAMAH        CLOUDY    29  24  82 NW15      30.01R WCI  18
WAYNE          CLOUDY    19  15  84 NW3       30.03R
$$

NEZ050>053-065>068-078-088>093-171000-
SOUTHEAST NEBRASKA

CITY           SKY/WX    TMP DP  RH WIND       PRES   REMARKS
LINCOLN        CLOUDY    31  27  85 NW8       30.04R WCI  23
OMAHA EPPLEY   CLOUDY    32  28  85 NW12      30.01R WCI  23
BEATRICE       CLOUDY    33  31  94 NW7       30.03R WCI  26
FALLS CITY     CLOUDY    33  32  96 W12       30.00R FOG     WCI  24
NEBRASKA CITY  CLOUDY    32  32 100 NW12      29.99R WCI  23
PLATTSMOUTH    CLOUDY    32  29  90 NW13G18   29.99R FOG     WCI  22
$$

NEZ044-045-051>053-067-171000-
OMAHA AREA

CITY           SKY/WX    TMP DP  RH WIND       PRES   REMARKS
OMAHA EPPLEY   CLOUDY    32  28  85 NW12      30.01R WCI  23
BLAIR          CLOUDY    30  28  93 W5        29.99R FOG     WCI  25
FREMONT        CLOUDY    29  26  90 NW14      30.02R WCI  18
MILLARD        CLOUDY    33  31  91 NW9       30.01R WCI  25
OFFUTT AFB     CLOUDY    32  32 100 NW12      29.99R WCI  23
PLATTSMOUTH    CLOUDY    32  29  90 NW13G18   29.99R FOG     WCI  22
WAHOO          CLOUDY    29  26  86 NW13      30.02R WCI  19
$$



USA.gov is the U.S. government's official web portal to all federal, state and local government web resources and services.